Location: Quaker Farms
(41.4276°N, 73.1557°W)
Time: 01:14:13
(UTC+00:00)

Altair - Pass Details

Date: 18 June 2021
Orbit: 1501 x 1682 km, 47.2° (Epoch: 23 July)

Event Time Altitude Azimuth Distance (km) Brightness Sun altitude
Rises 00:39:28 0° 297° (WNW) 4,842 12.8 -2.5°
Reaches altitude 10° 00:42:35 10° 295° (WNW) 3,875 11.5 -3.0°
Maximum altitude 00:52:24 66° 216° (SW) 1,798 7.9 -4.5°
Drops below altitude 10° 01:02:23 10° 137° (SE) 3,937 9.0 -5.9°
Enters shadow 01:03:29 - 136° (SE) 4,273 9.1 -6.1°
Sets 01:05:35 0° 135° (SE) 4,922 - -6.4°
